Location: Zagreb
(45.8000°N, 16.0000°E)
Time: 02:57:48
(UTC+01:00)

Courier 1B - Pass Details

Date: 06 October 2020
Orbit: 963 x 1209 km, 28.3° (Epoch: 25 October)

Event Time Altitude Azimuth Distance (km) Brightness Sun altitude
Rises 19:32:28 0° 205° (SSW) 3,996 11.0 -12.4°
Reaches altitude 10° 19:37:44 10° 175° (S) 3,088 10.0 -13.3°
Maximum altitude 19:40:02 12° 157° (SSE) 2,992 9.8 -13.7°
Drops below altitude 10° 19:42:20 10° 140° (SE) 3,121 9.7 -14.1°
Enters shadow 19:42:57 - 135° (SE) 3,192 9.7 -14.2°
